Location: Bois Neuf
(42.7667°N, 0.6333°E)
Time: 21:48:11
(UTC+00:00)

Cosmos 1937 Rocket - Pass Details

Date: 26 September 2020
Orbit: 747 x 779 km, 74.0° (Epoch: 26 October)

Event Time Altitude Azimuth Distance (km) Brightness Sun altitude
Rises 18:51:46 0° 244° (WSW) 3,226 7.7 -12.7°
Reaches altitude 10° 18:54:56 10° 264° (W) 2,298 7.3 -13.2°
Maximum altitude 18:58:22 18° 306° (NW) 1,828 6.4 -13.9°
Drops below altitude 10° 19:01:48 10° 347° (NNW) 2,293 6.3 -14.5°
Sets 19:04:59 0° 7° (N) 3,216 6.8 -15.1°
